FDX611 KDTW-KLAS

Flight info

Callsign FDX611
Flight time N/A
Altitude 36000
Route KAYLN3 SMUUV OBK IOW J60 HVE GGAPP CHOWW4
Aircraft B77L/H-SDE1E2E3FGHIJ2J3J4J5M1RWXY/LB1D1

Departure

Time 2026-05-07 15:35
Airport Detroit Metropolitan Wayne County Airport (KDTW)

Arrival

Time N/A
Airport Harry Reid International Airport (KLAS)
Time Latitude Longitude Altitude Speed Heading
2026-05-07 15:19 42.22020 -83.35122 655 ft 0 kts 179°
2026-05-07 15:25 42.22034 -83.35122 660 ft 4 kts 179°
2026-05-07 15:25 42.22060 -83.35123 661 ft 4 kts 178°
2026-05-07 15:25 42.22081 -83.35121 660 ft 4 kts 224°
2026-05-07 15:25 42.22093 -83.35092 661 ft 4 kts 262°
2026-05-07 15:26 42.22094 -83.35076 661 ft 0 kts 269°
2026-05-07 15:29 42.22093 -83.35110 661 ft 6 kts 269°
2026-05-07 15:29 42.22093 -83.35169 661 ft 0 kts 269°
2026-05-07 15:29 42.22093 -83.35178 659 ft 5 kts 269°
2026-05-07 15:30 42.22094 -83.35196 660 ft 2 kts 281°
2026-05-07 15:30 42.22128 -83.35253 660 ft 6 kts 319°
2026-05-07 15:30 42.22147 -83.35269 659 ft 12 kts 327°
2026-05-07 15:30 42.22232 -83.35341 658 ft 14 kts 332°
2026-05-07 15:31 42.22293 -83.35332 661 ft 5 kts 35°
2026-05-07 15:31 42.22385 -83.35260 660 ft 18 kts 29°
2026-05-07 15:31 42.22493 -83.35182 657 ft 17 kts 27°
2026-05-07 15:31 42.22588 -83.35112 658 ft 15 kts 31°
2026-05-07 15:32 42.22675 -83.35047 661 ft 15 kts 29°
2026-05-07 15:32 42.22763 -83.34982 660 ft 13 kts 28°
2026-05-07 15:32 42.22835 -83.34929 660 ft 11 kts 28°
2026-05-07 15:32 42.22900 -83.34883 660 ft 10 kts 28°
2026-05-07 15:33 42.22954 -83.34847 661 ft 8 kts 23°
2026-05-07 15:33 42.22988 -83.34828 656 ft 5 kts 22°
2026-05-07 15:33 42.22997 -83.34827 656 ft 0 kts
2026-05-07 15:33 42.23025 -83.34837 657 ft 12 kts 335°
2026-05-07 15:34 42.23069 -83.34914 656 ft 13 kts 301°
2026-05-07 15:34 42.23059 -83.35038 659 ft 16 kts 227°
2026-05-07 15:34 42.22871 -83.35188 660 ft 69 kts 208°
2026-05-07 15:34 42.22163 -83.35700 658 ft 162 kts 204°
2026-05-07 15:35 42.20953 -83.36627 1046 ft 222 kts 212°
2026-05-07 15:35 42.19516 -83.37615 1942 ft 246 kts 211°
2026-05-07 15:35 42.18281 -83.39134 2438 ft 236 kts 236°
2026-05-07 15:35 42.17356 -83.40902 3032 ft 231 kts 236°
2026-05-07 15:36 42.16405 -83.42668 3678 ft 235 kts 237°
2026-05-07 15:36 42.15399 -83.44392 4311 ft 238 kts 233°
2026-05-07 15:36 42.14331 -83.46105 4919 ft 240 kts 232°
2026-05-07 15:36 42.13288 -83.47858 5550 ft 241 kts 235°
2026-05-07 15:37 42.12263 -83.49661 6186 ft 243 kts 234°
2026-05-07 15:37 42.11230 -83.51486 6692 ft 248 kts 236°
2026-05-07 15:37 42.10143 -83.53317 6873 ft 252 kts 232°
2026-05-07 15:37 42.09036 -83.55124 6953 ft 249 kts 233°
2026-05-07 15:38 42.07993 -83.56991 6956 ft 249 kts 236°
2026-05-07 15:38 42.06937 -83.58832 6987 ft 248 kts 233°
2026-05-07 15:38 42.06150 -83.60846 7018 ft 244 kts 264°
2026-05-07 15:38 42.06346 -83.63047 7585 ft 243 kts 292°
2026-05-07 15:39 42.07098 -83.65119 8237 ft 248 kts 296°
2026-05-07 15:39 42.07934 -83.67168 8727 ft 253 kts 300°
2026-05-07 15:39 42.08925 -83.69146 8894 ft 256 kts 305°
2026-05-07 15:39 42.10011 -83.71047 8987 ft 255 kts 305°
2026-05-07 15:40 42.11056 -83.72973 9006 ft 253 kts 303°
2026-05-07 15:40 42.12088 -83.74854 9055 ft 253 kts 304°
2026-05-07 15:40 42.13118 -83.76808 9060 ft 252 kts 303°
2026-05-07 15:40 42.14152 -83.78721 9083 ft 253 kts 304°
2026-05-07 15:41 42.15177 -83.80612 9106 ft 254 kts 303°
2026-05-07 15:41 42.16184 -83.82561 9194 ft 251 kts 303°
2026-05-07 15:41 42.17207 -83.84429 9802 ft 247 kts 304°
2026-05-07 15:41 42.18245 -83.86295 10340 ft 260 kts 304°
2026-05-07 15:42 42.19371 -83.88436 10961 ft 300 kts 302°
2026-05-07 15:42 42.20678 -83.90921 11342 ft 349 kts 303°
2026-05-07 15:42 42.22227 -83.93729 11521 ft 389 kts 304°
2026-05-07 15:42 42.23779 -83.96703 11517 ft 384 kts 303°
2026-05-07 15:43 42.25363 -83.99542 11524 ft 377 kts 303°
2026-05-07 15:43 42.26861 -84.02441 11521 ft 377 kts 302°
2026-05-07 15:43 42.28397 -84.05304 11520 ft 377 kts 303°
2026-05-07 15:43 42.29933 -84.08181 11522 ft 377 kts 303°
2026-05-07 15:44 42.31468 -84.11060 11520 ft 377 kts 303°
2026-05-07 15:44 42.33000 -84.13941 11519 ft 377 kts 303°
2026-05-07 15:44 42.34531 -84.16813 11518 ft 377 kts 303°
2026-05-07 15:44 42.36055 -84.19692 11514 ft 377 kts 303°
2026-05-07 15:45 42.37589 -84.22570 11518 ft 376 kts 303°
2026-05-07 15:45 42.39111 -84.25450 11522 ft 377 kts 303°
2026-05-07 15:45 42.40645 -84.28337 11528 ft 377 kts 302°
2026-05-07 15:45 42.41797 -84.31443 12019 ft 370 kts 285°
2026-05-07 15:46 42.42870 -84.38310 13146 ft 375 kts 278°
2026-05-07 15:46 42.43285 -84.41742 13712 ft 376 kts 277°
2026-05-07 15:46 42.43455 -84.45291 13970 ft 377 kts 269°
2026-05-07 15:47 42.43531 -84.48854 14056 ft 379 kts 272°
2026-05-07 15:47 42.43641 -84.52411 14104 ft 378 kts 270°
2026-05-07 15:47 42.43711 -84.55972 14125 ft 378 kts 271°
2026-05-07 15:47 42.43810 -84.59524 14125 ft 377 kts 271°
2026-05-07 15:48 42.43897 -84.63063 14351 ft 373 kts 271°
2026-05-07 15:48 42.43985 -84.66592 14962 ft 378 kts 271°
2026-05-07 15:48 42.44070 -84.70168 15571 ft 383 kts 271°
2026-05-07 15:48 42.44156 -84.73777 16233 ft 385 kts 271°
2026-05-07 15:49 42.44244 -84.77430 16777 ft 391 kts 270°
2026-05-07 15:49 42.44331 -84.81127 16931 ft 393 kts 270°
2026-05-07 15:49 42.44415 -84.84820 17073 ft 392 kts 270°
2026-05-07 15:49 42.44499 -84.88515 17100 ft 393 kts 270°
2026-05-07 15:50 42.44583 -84.92197 17097 ft 391 kts 270°
2026-05-07 15:50 42.44662 -84.95873 17101 ft 391 kts 270°
2026-05-07 15:50 42.44745 -84.99538 17419 ft 385 kts 270°
2026-05-07 15:50 42.44822 -85.03189 18149 ft 391 kts 270°
2026-05-07 15:51 42.44897 -85.06848 18808 ft 397 kts 270°
2026-05-07 15:51 42.44977 -85.10602 19445 ft 400 kts 270°
2026-05-07 15:51 42.45055 -85.14373 20085 ft 401 kts 270°
2026-05-07 15:51 42.45129 -85.18165 20740 ft 404 kts 270°
2026-05-07 15:52 42.45208 -85.21989 21411 ft 408 kts 270°
2026-05-07 15:52 42.45279 -85.25838 22103 ft 411 kts 270°
2026-05-07 15:52 42.45357 -85.29720 22813 ft 414 kts 270°
2026-05-07 15:52 42.45430 -85.33624 23539 ft 417 kts 270°
2026-05-07 15:53 42.45503 -85.37558 24151 ft 420 kts 270°
2026-05-07 15:53 42.45574 -85.41527 24765 ft 422 kts 270°
2026-05-07 15:53 42.45645 -85.45500 25387 ft 423 kts 270°
2026-05-07 15:53 42.45714 -85.49484 26031 ft 425 kts 270°
2026-05-07 15:54 42.45784 -85.53500 26684 ft 428 kts 270°
2026-05-07 15:54 42.45850 -85.57537 27356 ft 431 kts 269°
2026-05-07 15:54 42.45916 -85.61600 28039 ft 434 kts 269°
2026-05-07 15:54 42.45984 -85.65703 28737 ft 437 kts 269°
2026-05-07 15:55 42.46046 -85.69781 29448 ft 440 kts 269°
2026-05-07 15:55 42.46111 -85.73921 30160 ft 438 kts 269°
2026-05-07 15:55 42.46171 -85.78022 30753 ft 433 kts 269°
2026-05-07 15:55 42.46231 -85.82097 31372 ft 432 kts 269°
2026-05-07 15:56 42.46288 -85.86153 32011 ft 433 kts 269°
2026-05-07 15:56 42.46346 -85.90247 32668 ft 434 kts 270°
2026-05-07 15:56 42.46401 -85.94338 33330 ft 435 kts 270°
2026-05-07 15:56 42.46455 -85.98443 34007 ft 436 kts 270°
2026-05-07 15:57 42.46509 -86.02548 34602 ft 436 kts 270°
2026-05-07 15:57 42.46560 -86.06657 35185 ft 437 kts 270°
2026-05-07 15:57 42.46501 -86.10783 35668 ft 442 kts 266°
2026-05-07 15:57 42.46311 -86.14971 35882 ft 449 kts 264°
2026-05-07 15:58 42.45836 -86.19164 35992 ft 453 kts 260°
2026-05-07 15:58 42.45112 -86.24771 36050 ft 457 kts 261°
2026-05-07 15:59 42.44793 -86.27311 36055 ft 458 kts 261°
2026-05-07 15:59 42.43705 -86.35804 36069 ft 458 kts 261°
2026-05-07 16:00 42.42614 -86.44305 36073 ft 458 kts 261°
2026-05-07 16:00 42.41700 -86.51383 36079 ft 459 kts 261°
2026-05-07 16:01 42.40597 -86.59889 36080 ft 459 kts 261°
2026-05-07 16:01 42.39486 -86.68392 36078 ft 459 kts 261°
2026-05-07 16:02 42.38367 -86.76907 36083 ft 459 kts 261°
2026-05-07 16:02 42.37282 -86.85407 36085 ft 456 kts 261°
2026-05-07 16:03 42.36117 -86.93807 36068 ft 454 kts 261°
2026-05-07 16:03 42.35020 -87.02186 36062 ft 451 kts 261°
2026-05-07 16:04 42.33892 -87.10496 36061 ft 450 kts 261°
2026-05-07 16:04 42.32771 -87.18775 36060 ft 451 kts 261°
2026-05-07 16:05 42.31628 -87.27172 36059 ft 451 kts 261°
2026-05-07 16:05 42.30496 -87.35444 36054 ft 450 kts 261°
2026-05-07 16:06 42.29346 -87.43804 36049 ft 450 kts 261°
2026-05-07 16:06 42.28204 -87.52057 36038 ft 451 kts 261°
2026-05-07 16:07 42.27047 -87.60380 36030 ft 450 kts 261°
2026-05-07 16:07 42.25887 -87.68671 36025 ft 449 kts 261°
2026-05-07 16:08 42.24723 -87.76947 36028 ft 448 kts 261°
2026-05-07 16:08 42.23556 -87.85200 36023 ft 448 kts 261°
2026-05-07 16:09 42.22430 -87.93481 36028 ft 447 kts 261°
2026-05-07 16:09 42.21006 -88.01659 36026 ft 448 kts 258°
2026-05-07 16:10 42.19578 -88.09845 36027 ft 448 kts 258°
2026-05-07 16:10 42.18138 -88.18020 36030 ft 448 kts 258°
2026-05-07 16:11 42.16704 -88.26137 36022 ft 447 kts 258°
2026-05-07 16:11 42.15257 -88.34297 36025 ft 448 kts 258°
2026-05-07 16:12 42.13805 -88.42448 36025 ft 447 kts 258°
2026-05-07 16:12 42.12350 -88.50582 36019 ft 446 kts 258°
2026-05-07 16:13 42.10891 -88.58700 36020 ft 445 kts 258°
2026-05-07 16:13 42.09427 -88.66810 36020 ft 445 kts 258°
2026-05-07 16:14 42.07963 -88.74888 36015 ft 444 kts 258°
2026-05-07 16:14 42.06496 -88.82943 36015 ft 443 kts 258°
2026-05-07 16:15 42.05023 -88.90996 36019 ft 443 kts 258°
2026-05-07 16:15 42.03546 -88.99044 36008 ft 442 kts 258°
2026-05-07 16:16 42.02066 -89.07064 36004 ft 441 kts 258°
2026-05-07 16:16 42.00594 -89.15021 36006 ft 441 kts 258°
2026-05-07 16:17 41.99107 -89.23012 36008 ft 441 kts 258°
2026-05-07 16:17 41.97612 -89.31015 36010 ft 441 kts 258°
2026-05-07 16:18 41.96113 -89.39010 36008 ft 441 kts 258°
2026-05-07 16:18 41.94610 -89.46991 36006 ft 440 kts 258°
2026-05-07 16:19 41.93101 -89.54972 36006 ft 440 kts 258°
2026-05-07 16:19 41.91587 -89.62945 36006 ft 441 kts 258°
2026-05-07 16:20 41.90069 -89.70907 36001 ft 440 kts 258°
2026-05-07 16:20 41.88548 -89.78854 36006 ft 439 kts 258°
2026-05-07 16:21 41.87032 -89.86738 36008 ft 439 kts 258°
2026-05-07 16:21 41.85501 -89.94671 35995 ft 439 kts 258°
2026-05-07 16:22 41.83967 -90.02584 35998 ft 438 kts 258°
2026-05-07 16:22 41.82434 -90.10469 35993 ft 436 kts 258°
2026-05-07 16:23 41.80897 -90.18332 35993 ft 436 kts 258°
2026-05-07 16:23 41.79356 -90.26192 35983 ft 436 kts 258°
2026-05-07 16:24 41.77813 -90.34030 35981 ft 434 kts 258°
2026-05-07 16:24 41.76269 -90.41843 35979 ft 434 kts 258°
2026-05-07 16:25 41.74718 -90.49654 35984 ft 434 kts 258°
2026-05-07 16:25 41.73175 -90.57401 35994 ft 433 kts 258°
2026-05-07 16:26 41.71620 -90.65178 36009 ft 432 kts 258°
2026-05-07 16:26 41.70058 -90.72957 36003 ft 433 kts 258°
2026-05-07 16:27 41.68493 -90.80728 36001 ft 432 kts 258°
2026-05-07 16:27 41.66927 -90.88468 35993 ft 431 kts 257°
2026-05-07 16:28 41.65365 -90.96161 35991 ft 431 kts 257°
2026-05-07 16:28 41.63788 -91.03896 35997 ft 431 kts 257°
2026-05-07 16:29 41.62213 -91.11594 36002 ft 430 kts 257°
2026-05-07 16:29 41.60630 -91.19307 36005 ft 429 kts 257°
2026-05-07 16:30 41.59043 -91.27002 36015 ft 429 kts 257°
2026-05-07 16:30 41.57461 -91.34649 36015 ft 429 kts 257°
2026-05-07 16:31 41.55867 -91.42325 36000 ft 428 kts 257°
2026-05-07 16:31 41.54274 -91.49971 36010 ft 428 kts 257°
2026-05-07 16:32 41.52689 -91.57646 36009 ft 428 kts 258°
2026-05-07 16:32 41.51488 -91.65403 36010 ft 426 kts 264°
2026-05-07 16:33 41.50781 -91.73243 36005 ft 426 kts 264°
2026-05-07 16:33 41.50043 -91.81090 35994 ft 426 kts 264°
2026-05-07 16:34 41.49300 -91.88920 35991 ft 425 kts 264°
2026-05-07 16:34 41.48551 -91.96746 35986 ft 425 kts 264°
2026-05-07 16:35 41.47797 -92.04577 35981 ft 426 kts 264°
2026-05-07 16:35 41.47041 -92.12362 35980 ft 426 kts 263°
2026-05-07 16:36 41.46271 -92.20240 35981 ft 425 kts 263°
2026-05-07 16:36 41.45502 -92.28056 35988 ft 426 kts 263°
2026-05-07 16:37 41.44731 -92.35830 35994 ft 426 kts 263°
2026-05-07 16:37 41.43948 -92.43673 35997 ft 426 kts 263°
2026-05-07 16:38 41.43161 -92.51497 36002 ft 426 kts 263°
2026-05-07 16:38 41.42369 -92.59317 36003 ft 426 kts 263°
2026-05-07 16:39 41.41569 -92.67148 35992 ft 427 kts 263°
2026-05-07 16:39 41.40764 -92.74980 36007 ft 426 kts 263°
2026-05-07 16:40 41.39955 -92.82802 36007 ft 426 kts 263°
2026-05-07 16:40 41.39141 -92.90624 36006 ft 426 kts 263°
2026-05-07 16:41 41.38319 -92.98449 36008 ft 427 kts 263°
2026-05-07 16:41 41.37494 -93.06266 35997 ft 426 kts 262°
2026-05-07 16:42 41.36669 -93.14030 35993 ft 426 kts 262°
2026-05-07 16:42 41.35832 -93.21855 36000 ft 428 kts 262°
2026-05-07 16:43 41.34987 -93.29701 35999 ft 428 kts 262°
2026-05-07 16:43 41.34137 -93.37544 35997 ft 428 kts 262°
2026-05-07 16:44 41.33282 -93.45377 35986 ft 428 kts 262°
2026-05-07 16:44 41.32422 -93.53217 35984 ft 429 kts 262°
2026-05-07 16:45 41.31554 -93.61068 35981 ft 429 kts 262°
2026-05-07 16:45 41.30682 -93.68905 35981 ft 428 kts 262°
2026-05-07 16:46 41.29804 -93.76749 35979 ft 429 kts 262°
2026-05-07 16:46 41.28918 -93.84609 35981 ft 430 kts 261°
2026-05-07 16:47 41.28027 -93.92474 35979 ft 430 kts 261°
2026-05-07 16:47 41.27137 -94.00276 35975 ft 430 kts 261°
2026-05-07 16:48 41.26236 -94.08135 35973 ft 431 kts 261°
2026-05-07 16:48 41.25324 -94.16027 35973 ft 431 kts 261°
2026-05-07 16:49 41.24410 -94.23897 35975 ft 431 kts 261°
2026-05-07 16:49 41.23645 -94.30444 35974 ft 431 kts 261°
2026-05-07 16:50 41.22719 -94.38322 35977 ft 432 kts 261°
2026-05-07 16:50 41.21788 -94.46193 35980 ft 433 kts 261°
2026-05-07 16:51 41.20848 -94.54106 35977 ft 432 kts 261°
2026-05-07 16:51 41.19904 -94.61996 35972 ft 433 kts 261°
2026-05-07 16:52 41.18952 -94.69892 35971 ft 433 kts 261°
2026-05-07 16:52 41.17997 -94.77791 35967 ft 434 kts 261°
2026-05-07 16:53 41.17033 -94.85699 35961 ft 434 kts 260°
2026-05-07 16:53 41.16064 -94.93605 35962 ft 435 kts 260°
2026-05-07 16:54 41.15087 -95.01531 35964 ft 435 kts 260°
2026-05-07 16:54 41.14106 -95.09449 35963 ft 435 kts 260°
2026-05-07 16:55 41.13124 -95.17323 35965 ft 436 kts 260°
2026-05-07 16:55 41.12129 -95.25263 35966 ft 437 kts 260°
2026-05-07 16:56 41.11125 -95.33215 35963 ft 437 kts 260°
2026-05-07 16:56 41.09611 -95.45133 35962 ft 437 kts 260°
2026-05-07 16:57 41.08592 -95.53095 35962 ft 438 kts 260°
2026-05-07 16:57 41.07567 -95.61067 35943 ft 439 kts 260°
2026-05-07 16:58 41.06535 -95.69036 35941 ft 439 kts 260°
2026-05-07 16:58 41.05499 -95.76995 35934 ft 438 kts 259°
2026-05-07 16:59 41.04466 -95.84890 35935 ft 439 kts 259°
2026-05-07 16:59 41.03415 -95.92876 35933 ft 440 kts 259°
2026-05-07 17:00 41.02360 -96.00846 35945 ft 440 kts 259°
2026-05-07 17:00 41.01300 -96.08823 35941 ft 439 kts 259°
2026-05-07 17:01 41.00233 -96.16791 35950 ft 440 kts 259°
2026-05-07 17:01 40.99158 -96.24778 35935 ft 441 kts 259°
2026-05-07 17:02 40.98079 -96.32764 35934 ft 440 kts 259°
2026-05-07 17:02 40.96957 -96.40711 35952 ft 441 kts 259°
2026-05-07 17:03 40.95911 -96.48727 35940 ft 442 kts 259°
2026-05-07 17:03 40.94802 -96.56729 35937 ft 441 kts 259°
2026-05-07 17:04 40.93705 -96.64667 35932 ft 442 kts 259°
2026-05-07 17:04 40.92559 -96.72664 35934 ft 443 kts 259°
2026-05-07 17:05 40.91767 -96.80746 35930 ft 443 kts 262°
2026-05-07 17:05 40.90998 -96.88835 35934 ft 443 kts 262°
2026-05-07 17:06 40.90229 -96.96931 35931 ft 444 kts 262°
2026-05-07 17:06 40.89452 -97.05048 35942 ft 445 kts 262°
2026-05-07 17:07 40.88667 -97.13163 35935 ft 445 kts 262°
2026-05-07 17:07 40.87879 -97.21270 35942 ft 445 kts 262°
2026-05-07 17:08 40.87080 -97.29398 35936 ft 446 kts 262°
2026-05-07 17:08 40.86278 -97.37531 35936 ft 446 kts 262°
2026-05-07 17:09 40.85467 -97.45661 35931 ft 446 kts 262°
2026-05-07 17:09 40.84653 -97.53789 35935 ft 447 kts 262°
2026-05-07 17:10 40.83830 -97.61939 35927 ft 447 kts 262°
2026-05-07 17:10 40.83006 -97.70033 35931 ft 447 kts 262°
2026-05-07 17:11 40.82172 -97.78178 35929 ft 448 kts 262°
2026-05-07 17:11 40.81330 -97.86338 35937 ft 449 kts 262°
2026-05-07 17:12 40.80481 -97.94501 35947 ft 449 kts 262°
2026-05-07 17:12 40.79627 -98.02660 35942 ft 449 kts 262°
2026-05-07 17:13 40.78766 -98.10832 35936 ft 449 kts 262°
2026-05-07 17:13 40.77899 -98.19010 35941 ft 450 kts 262°
2026-05-07 17:14 40.77024 -98.27192 35933 ft 450 kts 262°
2026-05-07 17:14 40.76145 -98.35364 35936 ft 450 kts 262°
2026-05-07 17:15 40.75264 -98.43499 35934 ft 451 kts 262°
2026-05-07 17:15 40.74369 -98.51697 35943 ft 452 kts 262°
2026-05-07 17:16 40.73469 -98.59889 35936 ft 451 kts 262°
2026-05-07 17:16 40.72565 -98.68074 35941 ft 451 kts 262°
2026-05-07 17:17 40.71652 -98.76271 35934 ft 453 kts 262°
2026-05-07 17:17 40.70732 -98.84485 35942 ft 453 kts 261°
2026-05-07 17:18 40.69805 -98.92698 35930 ft 453 kts 262°
2026-05-07 17:18 40.68874 -99.00900 35939 ft 453 kts 262°
2026-05-07 17:19 40.67935 -99.09107 35936 ft 454 kts 261°
2026-05-07 17:19 40.66991 -99.17325 35940 ft 454 kts 261°
2026-05-07 17:20 40.66038 -99.25551 35933 ft 454 kts 261°
2026-05-07 17:20 40.65089 -99.33704 35940 ft 454 kts 261°
2026-05-07 17:21 40.64124 -99.41934 35938 ft 455 kts 261°
2026-05-07 17:21 40.63153 -99.50168 35939 ft 455 kts 261°
2026-05-07 17:22 40.62177 -99.58376 35946 ft 455 kts 261°
2026-05-07 17:22 40.61191 -99.66639 35962 ft 456 kts 261°
2026-05-07 17:23 40.60199 -99.74890 35950 ft 457 kts 261°
2026-05-07 17:23 40.59200 -99.83147 35954 ft 457 kts 261°
2026-05-07 17:24 40.58196 -99.91392 35944 ft 456 kts 261°
2026-05-07 17:24 40.57185 -99.99648 35946 ft 457 kts 261°
2026-05-07 17:25 40.56166 -100.07918 35935 ft 458 kts 261°
2026-05-07 17:25 40.55142 -100.16180 35936 ft 458 kts 261°
2026-05-07 17:26 40.54118 -100.24392 35932 ft 458 kts 261°
2026-05-07 17:26 40.53080 -100.32660 35940 ft 459 kts 261°
2026-05-07 17:27 40.52035 -100.40945 35932 ft 459 kts 261°
2026-05-07 17:27 40.50984 -100.49225 35937 ft 459 kts 261°
2026-05-07 17:28 40.49925 -100.57507 35940 ft 460 kts 261°
2026-05-07 17:28 40.48860 -100.65802 35947 ft 461 kts 261°
2026-05-07 17:29 36.08238 -115.12559 35428 ft 0 kts 90°